User: anonymous   Login
Location: Belvedere Heights
(33.9836°N, 117.3109°W)
Time: 09:19:16
(UTC+00:00)
Language:

FO-29 - Orbit

View from above orbital plane
View from above orbital plane
View from above satellite
View from above satellite

Ground track
Ground track

The orbit data is extracted from the following two-line orbital elements,

1 24278U 96046B   24146.56737107  .00000009  00000-0  48343-4 0  9996
2 24278  98.5797  84.1877 0349143 246.7737 109.6282 13.53188837371371
Epoch (UTC): 25 May 2024 13:37:00
Eccentricity: 0.0349143
inclination: 98.5797°
perigee height: 801 km
apogee height: 1320 km
right ascension of ascending node: 84.1877°
argument of perigee: 246.7737°
revolutions per day: 13.53188837
mean anomaly at epoch: 109.6282°
orbit number at epoch: 37137

The dashed part of the orbit path shows where the satellite is in the earth's shadow,  

DLR